Content
SEND FEEDBACK

Daily
Averages
Monthly
Summary
United States of America

BOILING SPRING LAKES, NORTH CAROLINA


Home > North America > United States > North Carolina
Elevation: 20 feet     Latitude: 34 00N     Longitude: 078 01W

WEATHER
 
SELECT A DAY
Number of Records: 136,443;   Date Range: 8/21/01 - 7/29/14
 
SHARE

PRINT THIS DATA

[ ← Previous Day ]
WEATHER ALMANAC - FEBRUARY 10, 2013
[ Next Day → ]
[ °C ]   °F
Weather ElementAverageHighLow
Temperature44.7 °F56.3 °F (10:15 pm)31.8 °F (3:15 am)
Dewpoint36.5 °F47.7 °F (11:35 pm)27.3 °F (4:15 am)
Humidity74.4 %90 % (8:35 pm)50 % (11:15 am)
Barometer30.37 in30.47 in (10:35 am)30.26 in (10:15 pm)
Wind Speed5 mph10.4 mph (12:35 pm)
Weather ElementAverage
Visibility10 mi
Wind DirectionENE (55.4 °)

Weather ElementTotal
Precipitation---
Heating Degree Days21 (Base 65)
Averaged from 69 records on February 10, 2013
WEATHER CONDITIONS BREAKOUT
WIND DIRECTION BREAKOUT
WEATHER BY HOUR - FEBRUARY 10, 2013
[ °C ]   °F
Local TimeTemperatureDewpointHumidityBarometerVisibilityWind DirectionWind SpeedGust SpeedPrecipitationEventsConditions
12:35 AM32.9 °F28.6 °F84 %30.37 in10.0 miNNE (20°)3.5 mphClear
12:55 AM32.7 °F28.6 °F85 %30.37 in10.0 miCalmClear
1:15 AM32.5 °F28.4 °F85 %30.38 in10.0 miCalmClear
1:35 AM32.9 °F27.7 °F81 %30.37 in10.0 miNNE (20°)3.5 mphClear
1:55 AM32.4 °F28.0 °F84 %30.38 in10.0 miNNE (30°)3.5 mphClear
2:15 AM32.0 °F28.6 °F87 %30.38 in10.0 miNorth (10°)3.5 mphClear
2:35 AM32.0 °F27.5 °F83 %30.38 in10.0 miCalmClear
2:55 AM32.0 °F28.2 °F86 %30.38 in10.0 miNNE (20°)3.5 mphClear
3:15 AM31.8 °F28.4 °F87 %30.38 in10.0 miNNE (20°)3.5 mphClear
3:35 AM32.4 °F27.7 °F83 %30.38 in10.0 miNNE (30°)3.5 mphClear
3:55 AM32.0 °F27.7 °F84 %30.37 in10.0 miNNE (30°)4.6 mphClear
4:15 AM32.4 °F27.3 °F82 %30.37 in10.0 miNNE (30°)4.6 mphClear
4:35 AM32.5 °F27.7 °F82 %30.38 in10.0 miNNE (30°)3.5 mphClear
4:55 AM32.4 °F27.5 °F82 %30.38 in10.0 miCalmClear
5:15 AM32.9 °F27.7 °F81 %30.38 in10.0 miNNE (20°)3.5 mphClear
5:35 AM32.5 °F27.9 °F83 %30.39 in10.0 miNNE (20°)3.5 mphClear
5:55 AM32.4 °F28.2 °F85 %30.39 in10.0 miNNE (30°)3.5 mphClear
6:15 AM32.0 °F27.9 °F85 %30.40 in10.0 miNorth (10°)3.5 mphClear
6:35 AM32.4 °F28.9 °F87 %30.40 in10.0 miNNE (30°)3.5 mphClear
6:55 AM32.0 °F28.4 °F87 %30.42 in10.0 miNorth (10°)3.5 mphClear
7:15 AM32.0 °F28.2 °F86 %30.42 in10.0 miNNE (20°)3.5 mphClear
7:35 AM32.7 °F29.3 °F87 %30.42 in10.0 miNNE (20°)3.5 mphClear
7:55 AM34.5 °F30.2 °F84 %30.43 in10.0 miNNE (20°)3.5 mphClear
8:15 AM37.0 °F31.8 °F81 %30.44 in10.0 miNNE (20°)3.5 mphClear
8:35 AM39.6 °F32.2 °F75 %30.44 in10.0 miNNE (20°)3.5 mphClear
8:55 AM42.3 °F32.9 °F69 %30.45 in10.0 miNorth (10°)4.6 mphClear
9:15 AM44.8 °F33.8 °F65 %30.44 in10.0 miENE (60°)4.6 mphClear
9:35 AM46.8 °F33.6 °F60 %30.45 in10.0 miEast (80°)6.9 mphClear
9:55 AM48.2 °F32.9 °F55 %30.45 in10.0 miEast (80°)5.8 mphClear
10:15 AM48.6 °F32.9 °F55 %30.46 in10.0 miENE (70°)9.2 mphClear
10:35 AM49.1 °F32.5 °F53 %30.47 in10.0 miNE (50°)9.2 mphClear
10:55 AM50.9 °F33.1 °F51 %30.46 in10.0 miENE (60°)8.1 mphClear
11:15 AM51.6 °F33.4 °F50 %30.47 in10.0 miEast (80°)6.9 mphClear
11:35 AM51.6 °F34.0 °F51 %30.45 in10.0 miEast (80°)8.1 mphClear
11:55 AM52.5 °F35.2 °F52 %30.45 in10.0 miENE (70°)6.9 mphClear
12:15 PM52.9 °F35.4 °F52 %30.45 in10.0 miENE (60°)8.1 mphClear
12:35 PM52.7 °F35.4 °F52 %30.43 in10.0 miEast (90°)10.4 mphClear
1:15 PM53.2 °F36.9 °F54 %30.42 in10.0 miENE (70°)6.9 mphClear
1:35 PM53.6 °F37.0 °F53 %30.41 in10.0 miEast (80°)8.1 mphClear
1:55 PM53.4 °F37.6 °F55 %30.39 in10.0 miENE (70°)8.1 mphClear
2:15 PM52.9 °F38.3 °F58 %30.38 in10.0 miENE (70°)9.2 mphClear
2:35 PM52.3 °F38.8 °F60 %30.38 in10.0 miENE (70°)8.1 mphClear
2:55 PM52.0 °F39.4 °F62 %30.39 in10.0 miNE (50°)8.1 mphClear
3:15 PM52.7 °F40.1 °F62 %30.38 in10.0 miEast (80°)9.2 mphClear
3:35 PM51.6 °F40.5 °F66 %30.36 in10.0 miENE (70°)8.1 mphClear
4:15 PM50.5 °F41.5 °F71 %30.36 in10.0 miENE (60°)8.1 mphClear
4:35 PM50.4 °F42.1 °F73 %30.34 in10.0 miENE (60°)9.2 mphClear
4:55 PM50.0 °F42.8 °F76 %30.34 in10.0 miEast (80°)8.1 mphClear
5:15 PM49.3 °F43.0 °F79 %30.34 in10.0 miENE (70°)8.1 mphClear
5:35 PM48.7 °F43.3 °F82 %30.34 in10.0 miENE (70°)5.8 mphClear
5:55 PM48.4 °F43.9 °F84 %30.34 in10.0 miENE (70°)4.6 mphClear
6:15 PM48.2 °F44.2 °F86 %30.33 in10.0 miENE (70°)5.8 mphClear
6:35 PM48.7 °F44.8 °F86 %30.32 in10.0 miCalmClear
6:55 PM49.1 °F45.1 °F86 %30.31 in10.0 miEast (80°)4.6 mphClear
7:15 PM50.0 °F45.9 °F86 %30.31 in10.0 miENE (70°)5.8 mphClear
7:35 PM50.2 °F46.4 °F87 %30.30 in10.0 miCalmClear
7:55 PM50.7 °F46.8 °F86 %30.30 in10.0 miENE (70°)6.9 mphClear
8:15 PM50.2 °F46.8 °F88 %30.30 in10.0 miEast (80°)3.5 mphClear
8:35 PM50.0 °F47.1 °F90 %30.29 in10.0 miCalmScattered Clouds
8:55 PM50.2 °F46.9 °F89 %30.29 in10.0 miCalmScattered Clouds
9:15 PM54.3 °F46.4 °F75 %30.28 in10.0 miSE (140°)6.9 mphScattered Clouds
9:35 PM55.4 °F46.9 °F73 %30.28 in10.0 miSSE (150°)6.9 mphScattered Clouds
9:55 PM55.4 °F47.1 °F74 %30.28 in10.0 miSSE (150°)5.8 mphScattered Clouds
10:15 PM56.3 °F46.8 °F70 %30.26 in10.0 miSSE (150°)6.9 mphScattered Clouds
10:35 PM56.3 °F46.4 °F69 %30.26 in10.0 miSSE (150°)6.9 mphClear
10:55 PM55.8 °F46.8 °F72 %30.29 in10.0 miSouth (170°)4.6 mphScattered Clouds
11:15 PM55.6 °F47.3 °F74 %30.29 in10.0 miSouth (170°)3.5 mphScattered Clouds
11:35 PM56.3 °F47.7 °F73 %30.29 in10.0 miSSE (150°)3.5 mphMostly Cloudy
11:55 PM56.3 °F47.7 °F73 %30.30 in10.0 miCalmOvercast
Hourly data recorded from KSUT, located miles away from Boiling Spring Lakes, North Carolina







STORIES FROM OUR PARTNERS